Theta_e
321 322 324 323 322 322 322 323 323 324 325 323 323 323 323 323 323 323 323 323 324 324 324 324 325 325 326 326 327 327 325 323 326 334 334 333 331 330 328 323 334 328 333 342
324 324 323 321 321 322 323 323 324 324 324 322 322 322 323 324 324 323 323 323 323 323 324 324 324 324 325 324 325 327 326 324 323 331 332 336 330 327 331 335 324 326 332 333
322 324 322 321 321 323 323 323 322 323 322 322 323 323 324 324 323 323 323 323 323 323 324 322 321 321 321 322 322 325 326 324 323 331 334 335 333 330 326 330 331 329 331 336
322 323 322 321 322 323 323 322 321 321 322 323 323 325 326 323 323 323 323 323 323 323 323 321 320 320 319 320 321 324 324 324 322 324 332 335 337 333 332 335 332 326 333 338
323 322 322 322 321 322 321 322 322 322 323 324 323 323 324 323 322 322 323 322 321 321 322 322 320 320 319 319 320 322 323 324 323 319 328 331 335 335 337 338 340 337 337 337
322 322 321 322 321 321 321 322 322 322 323 323 322 321 320 321 322 322 322 321 320 320 321 321 319 318 319 319 321 322 321 323 324 320 325 327 330 333 335 336 336 332 332 326
325 324 323 321 322 322 321 321 324 323 323 322 322 320 323 323 322 321 321 321 321 321 321 319 318 319 319 321 321 321 320 323 323 322 321 324 327 329 330 332 334 334 327 334
326 326 324 322 321 321 321 321 322 324 324 321 321 321 320 321 319 319 319 319 320 319 319 318 318 317 318 317 320 317 320 320 322 322 320 320 324 325 327 326 328 329 331 327
324 325 324 323 323 320 319 321 321 321 321 323 321 321 321 319 318 319 320 320 319 319 318 315 315 318 318 317 318 317 316 315 319 318 320 319 320 322 324 325 325 325 325 326
323 323 323 322 321 321 322 321 321 321 324 322 320 319 318 320 318 319 319 318 319 318 317 318 318 317 316 317 317 317 317 317 317 318 318 317 316 318 319 321 325 325 321 321
321 323 324 322 321 321 320 319 319 319 319 322 321 319 319 320 319 321 320 317 318 318 316 315 316 314 314 314 316 315 315 315 315 316 316 317 314 315 318 318 316 322 318 315
321 322 321 320 320 319 318 318 318 324 321 320 322 322 318 318 318 319 319 318 318 317 315 315 315 314 315 315 315 314 314 313 313 315 314 315 315 314 317 316 317 315 318 319
320 319 320 319 320 320 320 320 319 320 323 320 321 319 318 317 319 319 318 316 315 316 316 316 316 315 315 314 314 312 313 313 313 314 314 313 314 316 312 316 314 311 317 318
314 317 316 317 317 319 319 317 317 318 325 318 317 317 317 320 320 318 317 316 315 314 314 314 314 314 314 314 313 312 312 312 311 311 312 311 311 314 314 316 315 314 314 315
319 321 320 319 318 317 317 318 317 317 316 318 317 316 319 319 318 317 316 315 314 313 312 313 313 312 313 312 311 310 310 310 310 310 310 310 310 314 316 316 314 314 313 314
318 324 320 320 318 318 318 317 315 315 316 316 317 317 318 318 317 316 315 314 313 313 312 312 311 310 311 310 309 308 308 308 310 309 309 310 312 313 316 315 312 313 312 311
320 322 320 319 318 318 318 318 317 316 316 316 318 317 318 318 316 315 314 313 313 312 312 311 310 309 309 309 308 307 307 307 308 309 309 311 312 314 315 311 312 311 308 307
318 320 318 321 318 320 318 316 316 316 316 317 317 319 317 316 315 314 314 312 312 311 311 310 309 309 308 308 306 306 306 307 308 308 308 310 312 314 311 311 310 307 306 305
318 320 322 321 321 317 317 318 319 318 316 318 318 316 315 314 313 313 313 312 311 310 310 308 307 308 308 307 306 305 306 307 307 308 309 311 311 310 310 309 306 305 304 303
319 319 320 318 321 316 316 317 316 315 317 317 316 315 314 314 317 314 312 312 310 309 308 307 307 307 306 307 306 305 305 306 307 308 308 310 310 309 308 305 304 302 302 301
320 320 320 321 321 318 316 316 315 318 318 315 313 313 313 314 313 313 311 310 308 307 307 306 305 304 305 305 305 305 306 306 307 308 308 308 308 306 305 303 302 302 302 303
319 321 322 321 321 322 316 315 317 316 314 313 313 313 313 313 311 310 310 308 307 306 305 303 303 303 303 304 305 305 306 306 307 308 308 306 305 303 302 302 302 303 303 303
321 318 323 318 318 317 315 314 313 314 314 314 313 313 312 311 310 309 307 306 306 304 303 302 302 302 303 305 304 305 305 306 308 307 305 304 303 302 303 303 304 305 305 305
316 315 319 317 315 314 313 312 312 314 313 314 313 311 310 309 308 307 306 304 304 303 303 302 301 301 302 303 304 305 306 307 307 305 303 303 304 304 304 305 305 305 304 304
315 314 314 315 314 314 313 313 314 313 313 313 311 310 309 307 306 305 303 303 302 302 303 302 302 302 303 304 305 306 307 307 305 303 302 302 304 304 303 303 303 303 303 303
314 315 319 319 314 314 313 312 312 313 311 309 308 307 306 306 304 302 302 301 301 303 304 305 304 304 304 305 307 306 306 306 303 303 303 303 303 302 302 302 301 301 302 302
Wind_Speed
4 9 1 12 6 8 11 11 13 14 7 12 12 17 20 24 25 24 5 7 3 0 3 4 7 8 10 12 16 20 28 30 26 24 23 24 23 21 25 27 28 30 26 20
9 9 10 5 6 8 11 14 13 14 15 16 19 21 21 19 5 11 9 3 1 2 3 6 8 10 12 14 15 16 24 31 32 27 26 25 25 25 24 20 32 32 32 30
9 8 6 4 8 11 12 11 12 16 18 18 20 19 19 19 10 10 7 6 5 8 1 5 8 13 16 17 18 15 20 24 31 26 27 22 24 17 24 24 19 32 35 37
7 9 2 7 9 9 10 16 15 17 16 13 15 16 20 2 7 13 14 15 14 2 2 3 7 11 14 18 18 14 17 23 29 28 28 24 20 22 19 21 26 29 30 36
2 2 7 9 9 8 12 12 15 17 19 20 19 11 5 6 12 3 8 14 7 6 6 5 10 11 16 19 23 17 20 23 25 29 29 26 22 20 21 18 21 11 18 28
13 9 3 5 10 10 9 15 16 20 17 12 14 17 11 14 18 15 16 16 17 14 9 10 14 17 17 17 17 21 22 21 24 26 23 23 21 22 19 20 19 21 19 21
6 10 10 2 8 11 13 14 10 6 9 10 22 12 15 22 22 20 21 23 26 28 19 20 23 18 19 18 21 20 18 21 23 24 22 23 18 16 21 20 15 17 15 13
7 4 4 6 4 10 13 10 6 15 13 18 16 11 4 14 19 22 23 27 26 25 20 31 30 20 24 19 14 25 20 17 26 20 25 21 19 20 20 25 22 19 16 14
6 6 13 10 10 7 10 10 12 11 14 15 10 14 8 15 16 11 17 12 12 15 12 12 21 17 25 11 15 20 18 19 22 21 25 22 20 20 21 22 26 25 16 5
7 10 12 1 1 13 15 11 9 7 9 15 13 17 12 22 15 8 13 20 18 14 16 20 24 27 12 23 14 17 17 15 18 22 27 26 21 22 20 20 27 23 20 15
10 7 11 16 15 14 11 10 13 10 8 11 15 9 18 19 13 15 16 17 13 13 19 21 22 24 27 15 18 16 16 19 19 20 22 27 27 22 22 24 26 24 22 19
7 4 9 18 20 10 4 10 9 7 10 10 11 14 15 13 14 4 6 15 12 12 18 21 15 17 17 17 15 19 22 21 22 21 20 20 25 24 22 19 17 20 27 19
8 3 7 10 5 6 6 9 15 13 10 13 13 12 15 14 15 14 20 17 15 14 14 14 17 18 20 21 20 22 23 22 20 22 20 20 18 25 21 19 15 16 25 18
2 4 9 9 15 17 20 20 18 14 7 14 15 20 19 14 13 14 14 13 14 16 16 19 22 21 20 19 23 23 24 22 24 22 23 23 19 20 20 16 18 19 18 14
3 6 10 16 18 20 22 21 19 18 16 15 17 18 8 9 7 10 13 18 23 25 27 19 19 25 24 23 24 29 27 25 26 23 24 23 18 18 15 16 20 14 13 12
4 4 11 19 19 20 18 18 22 21 19 16 13 14 15 17 9 13 18 22 25 23 25 25 23 27 27 27 26 28 27 25 24 25 24 19 15 20 12 16 16 13 8 7
7 4 6 8 12 17 13 6 10 12 13 11 11 14 17 14 18 19 21 23 20 24 25 27 29 28 26 21 21 25 28 26 23 20 23 17 21 14 12 17 11 8 6 8
4 2 5 8 13 4 8 23 13 6 8 11 14 12 14 16 20 23 26 17 21 26 28 26 27 25 24 23 27 32 24 20 21 18 19 21 15 6 12 11 6 5 6 8
13 5 2 3 4 15 13 9 9 10 11 13 15 19 23 25 28 27 20 25 28 28 26 25 29 26 27 23 30 28 22 18 17 16 17 9 7 10 8 4 6 9 9 12
12 10 6 6 5 5 12 14 7 8 10 10 18 21 25 27 12 11 27 29 30 28 27 27 31 29 30 24 24 18 20 16 14 13 13 12 15 8 5 10 11 14 20 21
9 7 11 10 8 8 5 11 16 9 7 21 22 23 24 15 18 31 32 28 32 32 31 30 30 28 25 24 21 19 14 14 11 11 12 7 5 8 13 16 19 23 23 23
10 6 7 7 8 7 4 14 7 10 20 22 23 21 24 25 26 29 29 31 33 32 28 29 25 23 20 13 10 13 9 6 8 9 2 6 16 20 23 26 24 23 23 22
10 8 5 5 7 22 27 14 13 22 17 18 19 23 23 27 31 31 33 33 31 27 25 26 21 20 13 8 8 7 4 6 3 2 12 21 25 28 25 23 22 19 17 19
14 18 7 11 13 17 21 26 26 17 20 24 23 20 21 27 31 34 32 33 26 27 26 30 20 14 10 9 3 3 2 4 5 14 23 28 25 19 20 15 14 18 21 23
14 12 13 15 18 22 22 20 21 19 20 21 19 19 24 28 32 29 31 28 27 29 28 19 13 8 3 5 5 4 10 7 17 26 28 22 23 23 22 21 21 20 21 19
15 10 7 11 20 17 23 27 24 21 13 19 19 23 27 26 27 26 27 27 28 25 16 14 6 1 7 7 14 10 10 13 26 32 29 26 24 24 26 25 27 24 21 22
Wind_Direction
220 248 55 40 17 331 319 321 308 295 344 326 303 301 302 298 287 274 294 114 94 171 309 356 349 337 343 335 340 341 342 348 354 342 328 310 289 278 283 253 259 246 249 250
252 227 81 18 316 299 302 301 306 327 341 328 307 296 285 281 3 72 71 35 250 230 301 344 336 335 338 340 343 348 348 341 348 347 332 329 311 261 243 263 255 251 248 243
311 84 82 309 297 305 305 334 336 314 317 305 296 308 308 297 131 129 153 166 227 228 123 351 350 347 346 338 332 332 349 340 339 346 339 326 318 295 265 260 268 249 245 237
289 72 352 289 291 341 317 352 330 318 314 305 305 291 287 18 173 205 188 194 219 170 184 280 343 333 330 331 332 332 349 346 334 343 343 334 334 318 294 285 279 268 251 231
56 320 324 324 329 357 306 339 309 288 285 284 278 266 57 205 318 320 201 213 143 286 272 23 311 342 334 343 336 342 347 346 333 340 348 341 332 311 288 284 311 312 252 254
273 306 263 316 336 290 268 278 296 288 274 276 0 356 325 334 352 343 20 16 12 18 28 357 348 338 346 337 345 351 345 342 341 333 344 348 336 336 319 303 324 297 281 265
300 243 100 42 309 335 340 325 310 308 314 304 355 338 36 28 31 22 9 8 3 6 357 351 344 350 341 345 347 323 327 354 330 329 338 2 359 358 5 351 336 350 300 325
290 254 166 109 300 303 296 296 305 310 317 308 308 292 92 50 30 28 21 14 9 356 7 353 357 346 323 344 341 353 337 336 335 355 336 348 359 3 3 3 352 356 13 293
323 277 350 304 302 360 314 309 323 315 297 295 296 307 0 45 6 32 56 23 8 0 340 332 351 351 311 333 337 358 337 358 345 340 333 336 333 350 352 359 353 350 348 32
329 305 290 325 326 271 238 252 287 280 281 287 292 316 312 359 3 13 352 9 11 1 344 336 327 330 345 341 348 2 358 348 337 342 333 334 335 337 326 354 352 348 341 315
300 269 281 308 282 303 316 300 310 323 313 305 303 296 341 315 11 28 8 352 17 4 355 341 343 342 325 341 329 335 338 335 324 321 334 328 329 326 336 323 308 331 330 329
38 313 289 284 288 290 322 299 300 278 280 276 288 287 297 322 30 359 322 41 29 16 12 359 342 0 341 319 324 330 333 323 330 322 322 328 324 317 340 322 319 321 321 320
12 281 314 302 143 148 243 294 312 298 303 289 290 290 294 325 1 356 31 18 12 352 348 326 327 325 322 325 331 333 333 327 316 319 327 320 323 319 323 328 326 329 308 310
124 260 254 265 299 309 299 298 298 292 279 280 274 295 297 21 8 355 29 9 346 335 334 324 331 332 326 325 335 336 328 321 321 316 318 316 308 323 321 314 324 319 315 331
198 272 298 294 301 297 288 283 281 279 282 286 291 289 33 1 336 357 344 346 341 335 325 343 338 330 321 327 326 332 329 322 320 316 313 314 303 325 301 300 311 325 332 348
235 260 293 294 287 281 313 311 294 279 270 280 313 319 349 28 351 337 349 337 331 334 335 328 324 326 319 320 323 320 315 313 318 315 318 316 309 313 292 313 336 332 342 16
299 300 309 283 323 327 297 332 336 321 315 325 319 337 9 2 354 339 333 336 340 328 326 323 322 320 314 319 326 317 314 313 309 318 316 319 320 286 305 330 337 335 24 42
229 77 270 292 310 256 291 324 299 296 307 346 327 9 355 335 325 323 316 359 336 328 322 321 318 317 308 295 311 318 310 313 314 322 326 318 320 289 335 343 342 37 62 60
206 153 275 272 277 280 289 360 338 338 323 13 14 349 334 328 322 314 337 340 331 323 319 312 307 307 305 303 311 312 314 316 313 326 332 325 343 347 354 25 77 79 67 63
168 174 158 253 276 272 308 360 24 319 288 9 338 329 324 326 314 309 328 322 319 321 314 309 311 306 298 303 312 309 310 313 321 323 329 337 345 12 57 91 86 80 76 75
203 200 230 239 255 257 325 10 332 284 332 332 326 334 328 318 306 307 320 319 320 317 315 313 313 305 303 296 297 301 307 306 317 320 320 336 20 89 93 89 84 91 85 75
289 258 246 228 243 281 44 353 343 320 309 314 317 315 308 313 321 318 316 317 314 316 318 317 316 311 313 319 304 298 306 311 316 319 346 79 96 93 91 92 91 87 84 83
286 278 286 265 269 317 316 330 306 311 310 314 320 313 318 316 316 318 315 312 317 318 319 317 314 306 312 317 303 307 315 283 279 128 102 103 105 100 92 87 88 79 76 76
297 299 261 269 278 297 302 297 304 319 309 303 311 318 318 317 315 314 315 314 315 317 313 316 321 319 313 308 286 121 160 176 151 118 113 109 99 89 84 83 85 91 87 78
271 281 289 293 299 299 296 307 317 317 308 309 308 308 310 313 310 313 311 311 311 310 316 325 322 328 348 113 108 157 137 134 129 121 112 103 95 97 97 97 91 86 83 86
314 310 290 281 298 305 301 301 293 310 321 316 315 315 316 311 310 310 307 305 305 314 325 329 314 32 123 104 142 129 131 139 129 115 108 103 100 101 98 97 89 83 85 84